DW3277 Weather Reports


time (UTC)temp
F
wind
direction
speed
knots
gust
knots
rain 1hr
in
rain 24hr
in
rain mn
in
humidity
%
barometer
mb
20260507053047 63 210 0.0 0.0 0.00 0.00 0.00 70 1009.7
20260507051547 63 210 0.0 0.0 0.00 0.00 0.00 68 1009.6
20260507050046 64 210 0.0 0.0 0.00 0.00 0.00 68 1009.6
20260507044546 65 210 0.0 0.0 0.00 0.00 0.00 66 1009.4
20260507043046 65 210 0.0 0.0 0.00 0.00 0.00 66 1009.5
20260507041554 66 210 0.0 0.0 0.00 0.00 0.00 64 1009.2
20260507040045 67 210 0.0 0.0 0.00 0.00 0.00 63 1009.2
20260507034548 67 210 0.0 0.0 0.00 0.00 0.00 61 1009.0
20260507033045 68 210 0.0 0.0 0.00 0.00 0.00 60 1008.8
20260507031543 70 210 0.0 0.0 0.00 0.00 0.00 58 1008.7
20260507030043 71 210 0.0 0.0 0.00 0.00 0.00 55 1008.6
20260507024543 73 210 0.0 0.0 0.00 0.00 0.00 52 1008.6
20260507023042 74 210 0.0 0.0 0.00 0.00 0.00 50 1008.6
20260507021545 75 210 0.0 0.0 0.00 0.00 0.00 48 1008.6
20260507020041 76 210 0.0 0.0 0.00 0.00 0.00 45 1008.6
20260507014553 77 210 0.0 0.0 0.00 0.00 0.00 41 1008.6
20260507013048 79 210 1.7 0.0 0.00 0.00 0.00 36 1008.4
20260507011541 80 210 3.5 0.0 0.00 0.00 0.00 35 1008.3
20260507010038 80 209 4.3 0.0 0.00 0.00 0.00 35 1008.2
20260507004539 81 209 5.2 0.0 0.00 0.00 0.00 34 1008.3
20260507003038 81 210 5.2 0.0 0.00 0.00 0.00 33 1008.2
20260507001549 82 213 4.3 0.0 0.00 0.00 0.00 33 1008.2
20260507000036 82 208 5.2 0.0 0.00 0.00 0.00 31 1008.1
20260506234535 82 202 6.1 0.0 0.00 0.00 0.00 29 1008.1
20260506233040 82 202 6.1 0.0 0.00 0.00 0.00 30 1008.2
20260506231537 83 207 5.2 0.0 0.00 0.00 0.00 31 1008.2
20260506230032 83 207 3.5 0.0 0.00 0.00 0.00 32 1008.2
20260506224531 83 204 3.5 0.0 0.00 0.00 0.00 33 1008.4
20260506223029 83 202 3.5 0.0 0.00 0.00 0.00 32 1008.6
20260506221527 83 202 4.3 0.0 0.00 0.00 0.00 33 1009.0
20260506220025 83 202 3.5 0.0 0.00 0.00 0.00 33 1009.2
20260506214522 82 202 2.6 0.0 0.00 0.00 0.00 33 1009.4
20260506213018 81 202 3.5 0.0 0.00 0.00 0.00 34 1009.6
20260506211517 81 202 1.7 0.0 0.00 0.00 0.00 32 1009.8
20260506210015 80 202 1.7 0.0 0.00 0.00 0.00 33 1009.9
20260506204512 80 202 2.6 0.0 0.00 0.00 0.00 33 1010.2
20260506203009 80 202 0.9 0.0 0.00 0.00 0.00 34 1010.4
20260506201508 79 202 1.7 0.0 0.00 0.00 0.00 34 1010.7
20260506200003 77 202 3.5 0.0 0.00 0.00 0.00 36 1010.6
20260506194617 77 202 0.9 0.0 0.00 0.00 0.00 35 1010.8
20260506193056 76 202 1.7 0.0 0.00 0.00 0.00 35 1011.1
20260506191552 74 202 1.7 0.0 0.00 0.00 0.00 33 1011.3
20260506190049 74 202 0.9 0.0 0.00 0.00 0.00 35 1011.5
20260506184551 73 202 0.9 0.0 0.00 0.00 0.00 36 1011.8
20260506183043 71 202 1.7 0.0 0.00 0.00 0.00 38 1012.1
20260506181543 71 202 0.9 0.0 0.00 0.00 0.00 38 1012.3
20260506180047 70 202 0.9 0.0 0.00 0.00 0.00 38 1012.4
20260506174536 69 202 0.9 0.0 0.00 0.00 0.00 39 1012.6
20260506173032 67 202 1.7 0.0 0.00 0.00 0.00 40 1012.6
20260506171544 66 202 0.0 0.0 0.00 0.00 0.00 41 1012.8
20260506170025 65 202 0.9 0.0 0.00 0.00 0.00 42 1013.1
20260506164522 63 202 0.0 0.0 0.00 0.00 0.00 43 1013.3
20260506163021 62 202 0.0 0.0 0.00 0.00 0.00 46 1013.6
20260506161520 61 202 0.0 0.0 0.00 0.00 0.00 51 1013.9
20260506160012 59 202 0.0 0.0 0.00 0.00 0.00 52 1014.1
20260506154505 57 202 0.0 0.0 0.00 0.00 0.00 57 1014.3
20260506153001 56 202 0.0 0.0 0.00 0.00 0.00 57 1014.5
20260506151558 55 202 0.0 0.0 0.00 0.00 0.00 60 1014.6
20260506150101 53 202 0.0 0.0 0.00 0.00 0.00 66 1014.7
20260506144554 51 202 0.0 0.0 0.00 0.00 0.00 70 1014.9
20260506143054 50 202 0.0 0.0 0.00 0.00 0.00 75 1014.9
20260506141553 48 202 0.0 0.0 0.00 0.00 0.00 80 1015.1
20260506140052 47 202 0.0 0.0 0.00 0.00 0.00 82 1015.2
20260506134615 47 202 0.0 0.0 0.00 0.00 0.00 83 1015.2
20260506133051 46 202 0.0 0.0 0.00 0.00 0.00 83 1015.0
20260506131605 46 202 0.0 0.0 0.00 0.00 0.00 83 1014.8
20260506130047 46 202 0.0 0.0 0.00 0.00 0.00 83 1014.6
20260506124545 46 202 0.0 0.0 0.00 0.00 0.00 82 1014.6
20260506123046 46 202 0.0 0.0 0.00 0.00 0.00 82 1014.4
20260506121542 47 202 0.0 0.0 0.00 0.00 0.00 82 1014.3
20260506120039 47 202 0.0 0.0 0.00 0.00 0.00 81 1014.1
20260506114544 47 202 0.0 0.0 0.00 0.00 0.00 81 1013.9
20260506113039 48 202 0.0 0.0 0.00 0.00 0.00 81 1013.8
20260506111534 48 202 0.0 0.0 0.00 0.00 0.00 80 1013.7
20260506110032 48 202 0.0 0.0 0.00 0.00 0.00 80 1013.6
20260506104530 49 202 0.0 0.0 0.00 0.00 0.00 79 1013.6
20260506103029 49 202 0.0 0.0 0.00 0.00 0.00 79 1013.4
20260506101527 49 202 0.0 0.0 0.00 0.00 0.00 78 1013.3
20260506100032 50 202 0.0 0.0 0.00 0.00 0.00 78 1013.2
20260506094524 50 202 0.0 0.0 0.00 0.00 0.00 78 1013.2
20260506093021 50 202 0.0 0.0 0.00 0.00 0.00 77 1013.1
20260506091520 50 202 0.0 0.0 0.00 0.00 0.00 77 1012.9
20260506090017 51 202 0.0 0.0 0.00 0.00 0.00 76 1012.9
20260506084516 51 202 0.0 0.0 0.00 0.00 0.00 76 1012.7
20260506083014 51 202 0.0 0.0 0.00 0.00 0.00 75 1012.6
20260506081520 52 202 0.0 0.0 0.00 0.00 0.00 75 1012.4
20260506073005 53 202 0.0 0.0 0.00 0.00 0.00 71 1012.0
20260506071507 53 202 0.0 0.0 0.00 0.00 0.00 71 1011.9
20260506070126 54 202 0.0 0.0 0.00 0.00 0.00 70 1011.7
20260506061554 56 202 0.0 0.0 0.00 0.00 0.00 64 1010.9